Montreal Mirabel, Quebec

12:27 PM EDT on July 27, 2016 (GMT -0400)
Montreal International (Mirabel)

Weather History for CYMX - November, 2012

Change the Weather History Date:

Friday, November 2, 2012

  Actual Average Record
Temperature  
Mean Temperature 39 °F -  
Max Temperature 41 °F 44 °F 60 °F (1997)
Min Temperature 37 °F 30 °F 14 °F (2002)
Degree Days  
Heating Degree Days 26    
Moisture  
Dew Point 38 °F    
Average Humidity 94    
Maximum Humidity 100    
Minimum Humidity 87    
Precipitation  
Precipitation 0.00 in - - ()
Sea Level Pressure  
Sea Level Pressure 29.56 in    
Wind  
Wind Speed 7 mph ()    
Max Wind Speed 10 mph    
Max Gust Speed 17 mph    
Visibility 10.4 miles    
Events Rain    
Averages and records for this station are not official NWS values.
T = Trace of Precipitation, MM = Missing Value Source: Averaged Metar Reports

Daily Weather History Graph

Daily Weather History Graph

Search for Another Location

Airport or City:

Trip Planner

Search our weather history database for the weather conditions in past years. The results will help you decide how hot, cold, wet, or windy it might be!

Date:

Astronomy

Nov. 02, 2012 Rise Set
Actual Time 7:38 AM EDT 5:40 PM EDT
Civil Twilight 7:06 AM EDT 6:11 PM EDT
Nautical Twilight 6:31 AM EDT 6:46 PM EDT
Astronomical Twilight 5:57 AM EDT 7:21 PM EDT
Moon 8:19 PM EDT (11/2) 11:03 AM EDT (11/2)
Length of Visible Light 11h 04m
Length of Day
10h 02m
Waning Gibbous, 87% of the Moon is Illuminated
Nov 2
Waning Gibbous
Nov 6
Last Quarter
Nov 13
New
Nov 20
First Quarter
Nov 28
Full

Hourly Weather History & Observations

Time (EDT) Temp. Windchill Dew Point Humidity Pressure Visibility Wind Dir Wind Speed Gust Speed Precip Events Conditions
12:00 AM 39.2 °F 34.2 °F 39.2 °F 100% 29.47 in 8.0 mi SW 6.9 mph - N/A Rain Light Rain
1:00 AM 39.2 °F 32.5 °F 37.4 °F 93% 29.48 in 25.0 mi SW 10.4 mph - N/A Rain Light Rain
2:00 AM 39.2 °F 34.2 °F 37.4 °F 93% 29.48 in 25.0 mi SW 6.9 mph - N/A Rain Light Rain
3:00 AM 39.2 °F 33.0 °F 37.4 °F 93% 29.49 in 25.0 mi SW 9.2 mph - N/A Rain Light Rain
4:00 AM 39.2 °F 33.0 °F 37.4 °F 93% 29.49 in 25.0 mi SW 9.2 mph - N/A Rain Light Rain
5:00 AM 39.2 °F 33.0 °F 37.4 °F 93% 29.49 in 25.0 mi SW 9.2 mph - N/A Rain Light Rain
6:00 AM 39.2 °F 33.6 °F 37.4 °F 93% 29.50 in 25.0 mi WSW 8.1 mph - N/A Rain Light Rain
7:00 AM 39.2 °F 33.0 °F 37.4 °F 93% 29.50 in 25.0 mi SW 9.2 mph - N/A Rain Light Rain
8:00 AM 37.4 °F 31.4 °F 37.4 °F 100% 29.51 in 12.0 mi WSW 8.1 mph - N/A Rain Light Rain
9:00 AM 37.4 °F 31.4 °F 37.4 °F 100% 29.54 in 12.0 mi SW 8.1 mph - N/A   Overcast
10:00 AM 37.4 °F 30.8 °F 37.4 °F 100% 29.54 in 12.0 mi WSW 9.2 mph - N/A Rain Light Rain
11:00 AM 39.2 °F 33.0 °F 37.4 °F 93% 29.55 in 12.0 mi WSW 9.2 mph - N/A Rain Light Rain
12:00 PM 39.2 °F 34.2 °F 37.4 °F 93% 29.56 in 12.0 mi WSW 6.9 mph - N/A Rain Light Rain
1:00 PM 39.2 °F 33.6 °F 37.4 °F 93% 29.57 in 20.0 mi WSW 8.1 mph - N/A   Overcast
2:00 PM 39.2 °F 33.6 °F 37.4 °F 93% 29.57 in 6.0 mi WSW 8.1 mph 17.3 mph N/A   Light Drizzle
2:38 PM 39.2 °F 33.0 °F 39.2 °F 100% 29.57 in 4.0 mi WSW 9.2 mph - N/A   Light Drizzle
3:00 PM 39.2 °F 33.0 °F 39.2 °F 100% 29.58 in 4.0 mi WSW 9.2 mph - N/A   Light Drizzle
4:00 PM 39.2 °F 34.2 °F 39.2 °F 100% 29.60 in 4.0 mi WSW 6.9 mph - N/A   Light Drizzle
4:44 PM 39.2 °F 33.6 °F 39.2 °F 100% 29.60 in 6.0 mi WSW 8.1 mph - N/A   Overcast
5:00 PM 41.0 °F 36.4 °F 39.2 °F 93% 29.60 in 10.0 mi WSW 6.9 mph - N/A   Overcast
6:00 PM 41.0 °F 37.1 °F 39.2 °F 93% 29.62 in 15.0 mi WSW 5.8 mph - N/A   Overcast
7:00 PM 41.0 °F 38.0 °F 39.2 °F 93% 29.63 in 15.0 mi West 4.6 mph - N/A   Mostly Cloudy
8:00 PM 41.0 °F 37.1 °F 39.2 °F 93% 29.65 in 15.0 mi West 5.8 mph - N/A   Mostly Cloudy
9:00 PM 41.0 °F 36.4 °F 37.4 °F 87% 29.65 in 25.0 mi West 6.9 mph - N/A   Overcast
10:00 PM 41.0 °F 37.1 °F 37.4 °F 87% 29.67 in 25.0 mi West 5.8 mph - N/A   Overcast
11:00 PM 41.0 °F 36.4 °F 37.4 °F 87% 29.68 in 25.0 mi West 6.9 mph - N/A   Overcast